Regional Weather Roundup
Issued by NWS Newport/Morehead, NC

Current Version | Previous Version | Graphics & Text | Print | Product List | Glossary Off
Versions: 1 2 3 4 5 6 7 8 9 10 11 12 13 14 15 16 17 18 19 20 21 22 23 24 25 26 27 28 29 30 31 32 33 34 35 36 37 38 39 40 41 42 43 44 45 46 47 48 49 50

000
ASUS42 KMHX 211810
RWRMHX
WEATHER ROUNDUP FOR EASTERN NORTH CAROLINA
NATIONAL WEATHER SERVICE NEWPORT/MOREHEAD CITY NC
200 PM EDT THU AUG 21 2014

NOTE: "FAIR" INDICATES FEW OR NO CLOUDS BELOW 12,000 FEET
WITH NO SIGNIFICANT WEATHER AND/OR OBSTRUCTIONS TO VISIBILITY

NCZ015>017-031-032-045>047-102-103-211900-
NORTH COAST

CITY           SKY/WX    TMP DP  RH WIND       PRES   REMARKS
EDENTON        SUNNY     87  74  66 W3        30.04S
ELIZABETH CITY MOSUNNY   88  75  65 W7        30.03F
KITTY HAWK     PTCLDY    87  72  62 SW5       30.02F
MANTEO         CLOUDY    84  73  70 S7        30.03F

$$

NCZ045>047-081-094-103-104-211900-
CENTRAL COAST

CITY           SKY/WX    TMP DP  RH WIND       PRES   REMARKS
FRISCO         MOSUNNY   83  74  74 SW5       30.05F
SWANQUARTER      N/A     88 N/A N/A S7        29.97F

$$

NCZ095-097-098-100-101-211900-
SOUTHERN COAST

CITY           SKY/WX    TMP DP  RH WIND       PRES   REMARKS
BEAUFORT       PTSUNNY   84  79  85 VRB6      30.06R
CEDAR ISLAND     N/A     88 N/A N/A S8G14     30.06F
JACKSONVILLE   MOSUNNY   91  73  55 VRB6      30.02F
NEWPORT        NOT AVBL
PINEY ISLAND   PTCLDY    88  72  58 S10       30.03F
WILMINGTON     MOSUNNY   89  70  53 S8        30.04S


$$

NCZ011>013-027>030-043-044-078>080-089-090>093-098-211900-
COASTAL PLAIN

CITY           SKY/WX    TMP DP  RH WIND       PRES   REMARKS
AHOSKIE        MOSUNNY   86  71  62 N3        30.04F
CLINTON        MOSUNNY   91  73  55 NW3       30.06S
ELIZABETHTOWN  MOSUNNY   92  69  46 NW3       30.05S
GOLDSBORO      MOSUNNY   90  75  62 VRB5      30.02F HX 101
GREENVILLE     SUNNY     88  75  66 N3        30.06S
HAVELOCK       PTSUNNY   91  75  59 W8        30.03F HX 102
KENANSVILLE    MOSUNNY   91  69  48 W6        30.05S
KINSTON        MOSUNNY   90  72  55 CALM      30.05S
NEW BERN       MOSUNNY   94  75  54 W6        30.03F HX 105
RICHLANDS      MOSUNNY   91  73  55 SW5       30.04S HX 100
ROANOKE RAPIDS NOT AVBL
ROCKY MOUNT    SUNNY     90  71  53 CALM      30.05S
WASHINGTON     SUNNY     89  73  60 CALM      30.03F
WHITEVILLE     MOSUNNY   92  73  54 W3        30.04F HX 100

$$

AMZ130-135-150-152-154-156-158-170-250-252-270-ANZ085-086-088-633-658-670-211900-
MARINE OBSERVATIONS

STATION/POSITION TIME  TEMP    WIND        PRES    WAVE   SWELL
                       AIR SEA DIR/SP/G            HT/PER HT/PER
                 (UTC) (F)     (DEG/KT/KT) (MB)    (FT/S) (FT/S)
CHESAPEAKE LIGHT 1700   80     310/  6/  6 1017.8
BUOY 44014       1800   77 79  220/  8/ 12 1016.9    2/ 8   2/ 8
DUCK             1800   84 79  240/  4/  6 1016.3
2E DUCK          1700                        N/A     2/ 7
OREGON INLET     1800   80 82  210/  7/ 10 1017.1
BUOY 44095       1800      80                N/A     3/ 7
20E OREGON INLET NOT AVBL
HATTERAS CG      1800   85 81  170/  2/  5 1017.8
DIAMOND BUOY     1800   81     190/  6/  8 1017.2    3/ 8   2/ 8
CAPE LOOKOUT     1700   82     170/ 10/ 12 1017.4
BEAUFORT LAB     1800   83 83  190/ 11/ 13 1017.1
30 SE NEW RIVER  1800   83 84  210/  8/  8 1017.1    2/ 5   2/ 5
5 SE WRIGHTSVILL 1800   79 83  190/ 10/ 10   N/A
BUOY 41002       1705   81 82  280/  8/  8 1019.0    3/ 6   2/ 6
BUOY 41004       1800   83 84  250/  8/ 10 1017.2    2/ 5   2/ 5

$$


USA.gov is the U.S. government's official web portal to all federal, state and local government web resources and services.